Regional Weather Roundup
Issued by NWS Wakefield, VA

Home | Current Version | Previous Version | Graphics & Text | Print | Product List | Glossary On
Versions: 1 2 3 4 5 6 7 8 9 10 11 12 13 14 15 16 17 18 19 20 21 22 23 24 25 26 27 28 29 30 31 32 33 34 35 36 37 38 39 40 41 42 43 44 45 46 47 48 49 50
000
ASUS41 KAKQ 010914
RWRAKQ

REGIONAL WEATHER ROUNDUP
NATIONAL WEATHER SERVICE WAKEFIELD VA
500 AM EDT WED APR 01 2015

Note: "fair" indicates few or no clouds below 12,000 feet with no
significant weather and/or obstructions to visibility. * = Denotes
station may not report precipitation (e.g., rain,snow,etc.),
thunder or fog.

VAZ042-051-052>054-056-011000-
NORTHERN VIRGINIA

CITY           SKY/WX    TMP DP  RH WIND       PRES   REMARKS
WASH NATIONAL  PTCLDY    41  29  62 NW7       30.01R
DULLES         CLEAR     34  27  75 CALM      30.00R
FORT BELVOIR   CLEAR     33  30  88 CALM      30.01R
QUANTICO       CLEAR     39  28  64 N7        30.03R
FREDERICKSBRG* CLEAR     40  31  71 CALM      30.01R
STAFFORD*      CLEAR     33  27  77 CALM      30.05R
WARRENTON      CLEAR     36  31  85 NE5       30.00R
CULPEPER*      CLEAR     37  30  75 CALM      30.01R
MANASSAS*      CLEAR     37  30  75 CALM      30.01R
LEESBURG*      CLEAR     32  30  93 NW3       30.01R
WINCHESTER     CLEAR     34  23  64 N3        29.99R
FRONT ROYAL*   FAIR      36  28  75 CALM      29.99R
LURAY*         FAIR      34  30  86 CALM      29.98R
$$

VAZ048-049-060>072-079>083-011000-
CENTRAL AND SOUTH CENTRAL VIRGINIA

CITY           SKY/WX    TMP DP  RH WIND       PRES   REMARKS
RICHMOND       PTCLDY    43  30  60 N13G21    29.98R
CHESTERFIELD*  NOT AVBL
PETERSBURG*    CLEAR     45  31  56 N12G20    29.99R
HANOVER        CLEAR     41  28  60 N9        29.99R
TAPPAHANNOCK*  CLEAR     41  27  59 NW7       30.00R
QUINTON*       FAIR      41  30  65 N8G17     29.98R
CHARLOTTSVILLE CLEAR     41  31  67 E10       29.98R
GORDONSVILLE*  FAIR      38  30  71 E3        29.99R
ORANGE*        CLEAR     39  32  75 CALM      30.01R
LOUISA*        CLEAR     39  30  70 NE6       29.98R
BUMPASS*       FAIR      39  29  67 N5        29.99R
FARMVILLE*     CLEAR     46  35  67 NE9       29.97R
CREWE*         FAIR      45  34  66 MISG      29.97R
FORT PICKETT*  FAIR      44  34  68 N10       29.97R
CHASE CITY*    FAIR      50  40  69 E3        29.95R
CLARKSVILLE*   FAIR      50  37  62 NE6       29.93R
SOUTH HILL*    CLEAR     47  36  65 CALM      30.01R
LAWRENCEVILLE* FAIR      46  36  67 N5        29.95R
EMPORIA*       CLEAR     46  34  61 N7        29.98R
$$

VAZ088>098-011000-
SOUTHEAST VIRGINIA

CITY           SKY/WX    TMP DP  RH WIND       PRES   REMARKS
NORFOLK        CLEAR     43  34  70 N21G29    29.96R
VIRGINIA BEACH MOCLDY    45  35  68 N21G30    29.96R
NORFOLK NAVAL  MOCLDY    48  36  63 N17       29.98R
WEST POINT*    CLEAR     43  30  59 N7        30.00R
SALUDA*        FAIR      40  31  69 N13G22    29.99R
NEWPORT NEWS   NOT AVBL
LANGLEY AFB    CLEAR     43  32  65 N17G23    29.96R
FORT EUSTIS    PTCLDY    44  36  73 N9        29.96R
WILLIAMSBURG*  CLEAR     45  36  70 N12G21    29.99R
HR EXEC AP*    FAIR      45  36  70 NE7       29.98R
FRANKLIN*      CLEAR    N/A N/A N/A N7        29.96R
WAKEFIELD      CLEAR     46  34  62 NE8       29.97R
$$

VAZ020-022-025-037-045-011000-
WEST CENTRAL AND SOUTHWEST VIRGINIA

CITY           SKY/WX    TMP DP  RH WIND       PRES   REMARKS
STAUNTON*      CLEAR     38  26  61 N5        29.99R
WAYNESBORO*    FAIR      37  28  69 NW5       29.97R
HOT SPRINGS VA CLEAR     33  28  81 NW10      29.90S WCI  24
LYNCHBURG      CLEAR     39  31  72 VRB3      29.97R
DANVILLE       CLEAR     52  34  50 N5        29.93R
SOUTH BOSTON*  FAIR      49  37  64 NE3       29.94R
MARTINSVILLE   CLEAR     52  33  47 N8        29.98R
ROANOKE        CLEAR     45  28  51 N9        29.99R
BLACKSBURG     CLEAR     39  29  67 NW6       29.99R
DUBLIN*        CLEAR     45  32  60 N6        29.98R
MARION*        CLEAR     44  31  59 W5        30.00R
HILLSVILLE*    CLEAR     43  32  65 N6        29.96R
RICHLANDS*     FAIR      40  15  35 NW6       29.98R
WISE*          CLEAR     41  32  70 NW3       30.01R
ABINGDON*      CLEAR     45  34  64 CALM      29.99R
$$

MDZ021>025-VAZ099-100-011000-
SOUTHERN MARYLAND AND THE DELMARVA PENINSULA

CITY           SKY/WX    TMP DP  RH WIND       PRES   REMARKS
PATUXENT RIVER CLEAR     38  30  73 NW13      29.99R
BAY BRIDGE APT NOT AVBL
LEONARDTOWN    CLEAR     36  30  80 NW3       30.01R
DOVER          CLEAR     36  31  83 W8        29.95R
GEORGETOWN     CLEAR     36  29  75 N5        29.95R
EASTON         CLEAR     38  31  75 N6        30.01R
CAMBRIDGE      CLEAR     41  30  65 NW8       29.97R
SALISBURY      CLEAR     36  31  82 NW8       29.96R
OCEAN CITY     CLEAR     37  30  75 N10G21    29.94R
WALLOPS ISLAND CLEAR     39  31  72 N7        29.97R
ACCOMACK*      CLOUDY    41  32  70 N9G17     29.96R
$$

NCZ012>017-030>032-011000-
NORTH CENTRAL AND EASTERN NORTH CAROLINA

CITY           SKY/WX    TMP DP  RH WIND       PRES   REMARKS
ROANOKE RAPIDS FAIR      50  37  62 NE8       29.94R
RALEIGH        CLEAR     50  38  63 NE6       29.92R
ELIZABETH CITY PTCLDY    46  38  73 N16G23    29.94R
AHOSKIE*       CLEAR     49  38  66 N9        29.94R
EDENTON*       CLEAR     50  41  72 NE7       29.93R
CURRITUCK*     MOCLDY    47  35  64 N14G23    29.95R
KILL DEVIL HLS CLEAR     45  38  75 N12G22    29.91R
MANTEO         CLEAR     46  38  73 N22G31    29.93R
CAPE HATTERAS  CLEAR     52  44  74 N10G20    29.88R
TARBORO*       FAIR      53  41  63 NE6       29.94R
GOLDSBORO      CLEAR     55  49  79 N8        29.88R
WASHINGTON     CLEAR     51  41  67 NE6       29.92R
GREENVILLE     CLEAR     52  41  66 NE5       29.94R
NEW BERN       CLEAR     56  42  59 NE14      29.90R
WILMINGTON     CLEAR     60  54  80 SW9       29.84R
$$

VAZ048-011000-
ELSEWHERE

CITY           SKY/WX    TMP DP  RH WIND       PRES   REMARKS
HARRISBURG PA  PTCLDY    34  25  69 NW8       29.96R
BALTIMORE      CLEAR     32  28  85 W3        29.98R
ANNAPOLIS      CLEAR     36  28  73 W3        29.98R
ANDREWS AFB    CLEAR     36  29  76 NW7       29.98R
PHILADELPHIA   FAIR      36  25  64 N8        29.94R
HENDERSON NC   CLEAR     49  37  63 NE7       29.93R
GREENSBORO     CLEAR     55  33  43 N7        29.91R
ROCKY MOUNT    CLEAR     53  40  61 NE10      29.93R
$$

VAZ100-011000-
MARINE

STATION/POSITION TIME  TEMP    WIND        PRES    WAVE   SWELL
                       AIR SEA DIR/SP/G            HT/PER HT/PER
                 (UTC) (F)     (DEG/KT/KT) (MB)    (FT/S) (FT/S)
BRANDYWINE LGT   0800   39 40  340/ 20/ 24 1013.2R
CAPE MAY NJ      0800   38 43   20/  1/  4 1012.6R
LEWES DE         0800   40 42  330/ 17/ 22 1013.4R
15NM E FENWICK I 0850   39 40              1012.4S   5/ 5
OCEAN-CITY-INLET 0800   40 46  360/ 16/ 21 1012.6R
WACHAPREAGUE VA  0800   42 50  360/  9/ 17 1013.3R
THOMAS POINT MD  0900                        N/A
COVE POINT MD    0800   39      20/ 12/ 17 1014.4R
SOLOMONS ISLAND  0800      44                N/A
BISHOPS HEAD MD  0800   40 46  350/ 10/ 16 1013.5R
PINEY POINT MD   0800           10/ 11/ 12   N/A
CAMBRIDGE MD     0800   41 45  340/ 14/ 17 1014.2R
LEWISETTA VA     0800   41 44              1014.6R
RAPPAHANNOCK LGT 0800          340/ 32/ 35 1013.9R
STINGRAY PT      0900   42 44  360/ 19/ 23   N/A     3/ 3
YORK RVR RNG VA  0800   45     360/ 21/ 26 1012.8R
YORKTOWN VA      0800   45 47  360/ 15/ 20 1013.6R
DOMINION TERM VA 0800   46      50/  5/  9 1013.6R
KIPTOPEKE VA     0800      50   10/ 13/ 19   N/A
CHES BAY BRIDGE  0800   44 45  350/ 23/ 30 1013.1R
CAPE HENRY VA    0800   44     350/ 21/ 27 1012.3R
CHESAPEAKE LGHT  0800   44     360/ 24/ 26 1013.5R
WILLOUBY STN VA  0800   44      10/ 16/ 18 1014.2
S CRANEY ISL VA  0800           30/ 15/ 19 1013.6R
CAPE HENRY BUOY  0828      43                N/A     4/ 4
1ST LANDING BUOY 0900   43     360/ 23/ 27 1014.3R   4/ 3
OFFSHORE WE BUOY 0811      41                N/A     3/ 4   2/ 7
64NM E OF VA BCH 0850   45 49  360/ 25/ 29 1011.9R   5/ 7   3/ 7
DUCK PIER NC     0800   47 41   10/ 15/ 19 1011.7R
44056 DUCK FRF   0811      42                N/A     2/ 3
OREGON INLET NC  0800   46 55  350/ 10/ 14 1011.8R
HATTERAS NC      0800   55 58   10/ 16/ 19 1011.3R
CAPE LOOKOUT NC  0900   58      10/  7/  9 1011.1R
$$



USA.gov is the U.S. government's official web portal to all federal, state and local government web resources and services.